Home   Weather   Neubrandenburg   Past weeks

Flag for Germany Past Weather in Neubrandenburg, Mecklenburg-Western Pomerania, Germany — Yesterday and Last 2 Weeks

Now
32 °F

Drizzle. Ice fog.


Feels Like: 27 °F
Forecast: 31 / 34 °F
Wind: 5 mph from Southwest

Location: Laage

Current Time: Jan 19, 2017 at 6:12:12 pm

Latest Report: Jan 19, 2017 at 5:20 pm


Visibility: 1 mi

Pressure: 30.60 "Hg

Humidity: 93%

Dew Point: 30 °F

Location of NeubrandenburgLocation

Past Weather in Neubrandenburg — Graph

°F

Neubrandenburg Temperature Yesterday

Maximum temperature yesterday: 30 °F (at 11:20 am)
Minimum temperature yesterday: 27 °F (at 12:20 am)
Average temperature yesterday: 29 °F

High & Low Weather Summary for the Past Weeks

 TemperatureHumidityPressure
High37 °F (Jan 11, 8:20 pm)100% (Jan 7, 9:20 pm)30.77 "Hg (Jan 7, 9:20 pm)
Low14 °F (Jan 6, 3:20 am)54% (Jan 6, 2:20 pm)29.06 "Hg (Jan 13, 7:08 am)
Average30 °F86%30.05 "Hg
* Reported Jan 4 5:20 pm — Jan 19 5:02 pm, Neubrandenburg, Weather by CustomWeather, © 2017

Note: Actual official high and low records may vary slightly from our data, if they occured in-between our weather recording intervals... More about our weather records

Advertising

Neubrandenburg Weather History for the Previous 24 Hours

Scroll right to see more
 ConditionsComfort  
Time TempWeatherWind HumidityBarometerVisibility
5:02 pm
Thu, Jan 19
32 °FIce fog.5 mph93%30.60 "Hg2 mi
4:20 pm32 °FDrizzle. Ice fog.6 mph87%30.60 "Hg1 mi
3:20 pm32 °FLow clouds.7 mph80%30.60 "HgN/A
2:20 pm32 °FDrizzle. Low clouds.9 mph80%30.60 "Hg4 mi
1:48 pm32 °FLow clouds.9 mph75%30.60 "Hg4 mi
1:20 pm32 °FDrizzle. Low clouds.7 mph75%30.63 "Hg6 mi
12:20 pm32 °FPartly sunny.8 mph75%30.63 "HgN/A
11:20 am30 °FPartly sunny.10 mph75%30.63 "HgN/A
10:20 am30 °FPartly sunny.10 mph75%30.63 "HgN/A
9:20 am30 °FPartly sunny.9 mph75%30.63 "HgN/A
8:20 am28 °FPartly sunny.8 mph80%30.63 "HgN/A
7:20 am28 °FPassing clouds.9 mph80%30.60 "HgN/A
6:20 am28 °FPassing clouds.9 mph80%30.63 "HgN/A
5:51 am28 °FLight freezing rain. Passing clouds.9 mph80%30.63 "HgN/A
5:20 am28 °FPartly cloudy.10 mph80%30.63 "HgN/A
4:20 am28 °FPassing clouds.8 mph80%30.63 "HgN/A
3:20 am28 °FPassing clouds.9 mph86%30.66 "Hg4 mi
2:20 am28 °FPartly cloudy.7 mph86%30.66 "Hg4 mi
1:20 am28 °FOvercast.8 mph86%30.66 "Hg4 mi
12:20 am28 °FPartly cloudy.8 mph86%30.66 "Hg4 mi
11:20 pm
Wed, Jan 18
28 °FPassing clouds.8 mph86%30.66 "Hg4 mi
10:20 pm28 °FPassing clouds.8 mph86%30.66 "Hg4 mi
9:50 pm28 °FPassing clouds.8 mph86%30.66 "Hg4 mi
9:20 pm28 °FPassing clouds.8 mph86%30.66 "Hg5 mi
8:20 pm28 °FPartly cloudy.8 mph86%30.66 "Hg5 mi
7:20 pm28 °FPartly cloudy.8 mph86%30.69 "Hg5 mi
6:20 pm28 °FPassing clouds.6 mph86%30.69 "Hg5 mi
Weather by CustomWeather, © 2017

See weather overviewHow to use our weather pages